Hlavní strana
METAR-TAF:

METAR-TAF

Letiště :

Indianapolis, Indiana, Spojené státy americké

zeměpisná šířka: 39-49-30N, zeměpisná délka: 086-17-45W, výška: 250 m

Aktuální stav počasí

Zpráva byla vytvořena před 27 minutami, v 01:53 UTC
Západní vítr 5 kt
Teplota 5°C
Vlhkost vzduchu 75%
Tlak 1016 hPa
Viditelnost: 16.1 km
Zataženo ve výšce 3200 ft

METAR: KEYE 220153Z AUTO 26005KT 10SM OVC032 05/01 A3001 RMK AO2 SLP166 T00500011

Čas: 22:20 (02:20 UTC)


TAF: chybějící

Stav a předpovědi počasí z více než 4 000 letišť (zprávy METAR a TAF).

Červené a žluté tečky na mapě představují dostupné meteorologické stanice.

Když kurzor umístíte na tečku, zobrazí se název stanice.

Pak kliknutím zobrazíte stav a předpověď počasí.

Chcete-li změnit mapu, kliknutím na zelené tlačítko se znaménkem +mapu přiblížíte, kliknutím na zelené tlačítko se znaménkem – mapu oddálíte a kliknutím na zelené šipky přejdete na sousední mapy.


METAR-TAF: